[[{"header":{"parameterUnit":"m.s-1","parameterCategory":1,"la1":30.2991,"la2":30.254,"lo1":-89.0895,"lo2":-89.0444,"dy":0.0017,"dx":0.0017,"nx":28,"ny":28,"refTime":"2025-01-05T09:00:00:Z","depth":0,"parameterNumber":2,"parameterNumberName":"U-component_of_WINDS"},"data":[0,0,0,0,0,0,0,0,0,0,0,0,0,0,0,0,0,0,0,0,0,0,0,0,0,0,0,0,0,0,0,0,0,0,0,0,0,0,0,0,0,0,0,0,0,0,0,0,0,0,0,0,0,0,0,0,0,0,6.0572,6.0573,0,6.0672,6.0673,6.0674,6.0617,6.0614,6.0611,6.0609,6.0708,6.0713,6.0718,0,0,0,0,0,0,0,0,0,0,0,0,0,6.0329,6.0334,6.0572,6.0573,6.0574,6.0672,6.0673,6.0674,6.0617,6.0614,6.0611,6.0607,6.0706,6.0712,6.0719,0,0,0,0,0,0,0,0,0,0,0,0,0,6.0433,6.0336,6.0571,6.0558,6.0557,6.0671,6.0673,6.0675,6.0618,6.0614,6.061,6.0606,6.0704,6.0712,6.0719,6.0852,0,0,6.0743,6.0747,0,0,0,0,0,0,0,0,6.0427,6.0441,6.0558,6.0559,6.0559,6.0628,6.0624,6.0734,6.0619,6.0595,6.0609,6.0604,6.0684,6.0693,6.0721,6.0856,6.0861,6.0744,6.0749,6.0752,6.0754,0,0,0,0,0,0,0,6.042,6.0437,6.0611,6.056,6.056,6.0546,6.0556,6.0645,6.0662,6.0597,6.0593,6.0606,6.0683,6.0714,6.0723,6.0862,6.0744,6.0751,6.0756,6.0759,6.1113,6.1117,0,0,0,0,0,0,6.0414,6.0431,6.0608,6.0614,6.0481,6.0554,6.0565,6.061,6.0661,6.0664,6.0609,6.0603,6.0703,6.0714,6.0727,6.0886,6.0752,6.076,6.0764,6.1108,6.1114,6.1119,0,0,0,0,0,0,6.0409,6.043,6.0604,6.0522,6.0543,6.0562,6.0613,6.0614,6.0644,6.067,6.0673,6.0637,6.07,6.0715,6.0822,6.0889,6.0763,6.077,6.1103,6.111,6.1116,6.1206,0,0,0,0,0,0,6.0402,6.0429,6.0479,6.0523,6.0548,6.0698,6.0617,6.0619,6.0658,6.0651,6.0697,6.0701,6.0698,6.081,6.083,6.0897,6.0776,6.1097,6.1106,6.1114,6.1197,6.1215,6.1231,0,0,0,0,0,6.0394,6.0499,6.0482,6.0504,6.0611,6.0702,6.0716,6.0711,6.0664,6.0715,6.0732,6.0699,6.0879,6.0822,6.0843,6.0914,6.1092,6.1103,6.1113,6.1189,6.1211,6.123,0,0,0,0,0,0,6.0461,6.0505,6.0486,6.0609,6.0653,6.0692,6.0756,6.0734,6.0791,6.0781,6.0772,6.0783,6.0894,6.0915,6.0851,6.1046,6.0978,6.0993,6.1028,6.105,6.1066,6.1059,6.0783,0,0,0,0,0,6.049,6.0561,6.0595,6.0701,6.0724,6.0737,6.0776,6.0769,6.0813,6.0831,6.0855,6.0898,6.0965,6.1008,6.107,6.12,6.1209,6.1259,6.1276,6.129,6.1303,6.1374,6.1397,6.1154,6.1153,6.1153,0,0,6.0551,6.0584,6.0629,6.0715,6.0748,6.0821,6.0752,6.0832,6.0887,6.0842,6.0945,6.0965,6.1012,6.1132,6.1185,6.1152,6.1373,6.1303,6.1314,6.132,6.1388,6.1411,6.1431,6.1161,6.1159,6.1158,0,0,6.07,6.0732,6.0824,6.0859,6.091,6.0919,6.0941,6.0985,6.0997,6.11,6.1069,6.1133,6.1247,6.1283,6.1316,6.1482,6.1454,6.1502,6.1589,6.1659,6.1678,6.1695,6.1755,6.1777,6.1515,6.1515,6.1515,0,6.0769,6.0879,6.0874,6.0957,6.0997,6.0962,6.1055,6.1089,6.1158,6.1185,6.1148,6.1292,6.1321,6.1449,6.149,6.1517,6.1543,6.1496,6.1676,6.1693,6.1709,6.1766,6.1788,6.1521,6.152,6.152,6.1519,0,6.0962,6.1039,6.1107,6.1176,6.1223,6.1311,6.1319,6.1367,6.1357,6.137,6.1476,6.1511,6.158,6.161,6.1599,6.1737,6.1715,6.1677,6.1609,6.1738,6.1791,6.1813,6.1529,6.1527,6.1525,6.1524,0,0,6.1153,6.1221,6.1246,6.1278,6.1334,6.1393,6.148,6.1549,6.1591,6.164,6.1713,6.1812,6.1778,6.1815,6.1809,6.1871,6.2001,6.1825,6.1826,6.1857,6.2156,6.2184,6.2209,6.1983,6.1987,6.1991,6.2152,0,6.1306,6.146,6.1459,6.16,6.1672,6.1641,6.1717,6.1759,6.1774,6.1837,6.1852,6.1923,6.1872,6.1895,6.1954,6.1973,6.2061,6.1961,6.2051,6.2054,6.204,6.2237,6.2267,6.2418,6.2173,6.2176,6.2179,0,6.1505,6.1563,6.1712,6.1759,6.1789,6.1857,6.1922,6.1983,6.203,6.2036,6.208,6.2065,6.2154,6.2084,6.2205,6.2138,6.2174,6.2189,6.2195,6.2203,6.2124,6.2251,6.2465,6.2488,6.2211,6.2209,6.2207,0,6.1631,6.1746,6.1851,6.1879,6.1936,6.1985,6.2011,6.2055,6.2097,6.2154,6.2181,6.2247,6.2283,6.2334,6.2337,6.2286,6.2461,6.239,6.2468,6.2469,6.2506,6.2504,6.273,6.253,6.2529,6.2529,6.2529,0,6.1802,6.1895,6.1909,6.1973,6.2077,6.2075,6.2177,6.2198,6.2238,6.2306,6.2283,6.2347,6.2347,6.2412,6.2415,6.2516,6.2532,6.254,6.254,6.2542,6.2542,6.2566,6.2556,6.2535,6.2534,6.2533,6.2532,0,6.196,6.1973,6.2086,6.2132,6.2145,6.222,6.2259,6.232,6.2333,6.242,6.244,6.246,6.2536,6.2545,6.2633,6.2635,6.2757,6.2745,6.2742,6.274,6.2818,6.2811,6.3068,6.3101,6.2879,6.2881,6.2883,0,6.2068,6.214,6.2194,6.2239,6.2268,6.234,6.2384,6.2385,6.2432,6.2493,6.2548,6.2622,6.2681,6.2804,6.2826,6.2894,6.2884,6.2969,6.2893,6.2895,6.2886,6.2882,6.2889,6.2984,6.2986,6.2988,6.299,0,6.226,6.2263,6.2328,6.2397,6.2451,6.2505,6.2555,6.2592,6.26,6.2654,6.2733,6.2779,6.287,6.2944,6.3011,6.3037,6.3015,6.3014,6.3035,6.3039,6.3034,6.3038,6.2782,6.3007,6.3006,6.3004,6.3003,6.3003,6.2397,6.2459,6.2508,6.2582,6.262,6.2668,6.2729,6.2751,6.2817,6.2892,6.2889,6.2976,6.3023,6.3111,6.3142,6.321,6.3181,6.3212,6.322,6.3228,6.3237,6.3024,6.3222,6.3221,6.3221,6.322,6.322,0,6.2587,6.2618,6.2686,6.2758,6.2817,6.2793,6.2848,6.2898,6.2975,6.3022,6.3081,6.3172,6.3245,6.3274,6.3345,6.3393,6.3385,6.3412,6.3408,6.3415,6.3258,6.3232,6.3417,6.3417,6.3417,6.3417,6.3417,6.3417,6.2693,6.2798,6.2808,6.2932,6.2962,6.3048,6.3081,6.3126,6.3163,6.3266,6.3327,6.3346,6.3386,6.346,6.3525,6.3532,6.3559,6.3591,6.3593,6.3446,6.3426,6.3407,6.3383,6.3597,6.3597,6.3745,6.3746,6.3747]},{"header":{"parameterUnit":"m.s-1","parameterCategory":1,"la1":30.2991,"la2":30.254,"lo1":-89.0895,"lo2":-89.0444,"dy":0.0017,"dx":0.0017,"nx":28,"ny":28,"refTime":"2025-01-05T09:00:00:Z","depth":0,"parameterNumber":3,"parameterNumberName":"V-component_of_WINDS"},"data":[0,0,0,0,0,0,0,0,0,0,0,0,0,0,0,0,0,0,0,0,0,0,0,0,0,0,0,0,0,0,0,0,0,0,0,0,0,0,0,0,0,0,0,0,0,0,0,0,0,0,0,0,0,0,0,0,0,0,-7.1066,-7.1067,0,-7.1199,-7.1201,-7.1202,-7.117,-7.1167,-7.1164,-7.1162,-7.1293,-7.1299,-7.1305,0,0,0,0,0,0,0,0,0,0,0,0,0,-7.0779,-7.0785,-7.1066,-7.1067,-7.1069,-7.1199,-7.1201,-7.1202,-7.117,-7.1167,-7.1164,-7.1161,-7.1291,-7.1298,-7.1305,0,0,0,0,0,0,0,0,0,0,0,0,0,-7.0907,-7.0787,-7.1065,-7.1069,-7.107,-7.1198,-7.1201,-7.1203,-7.1171,-7.1167,-7.1163,-7.1159,-7.1289,-7.1297,-7.1306,-7.1438,0,0,-7.1333,-7.1337,0,0,0,0,0,0,0,0,-7.09,-7.0918,-7.1066,-7.1069,-7.1071,-7.1164,-7.1148,-7.1281,-7.1172,-7.1132,-7.1162,-7.1157,-7.1253,-7.1264,-7.1298,-7.1444,-7.145,-7.1334,-7.1339,-7.1343,-7.1346,0,0,0,0,0,0,0,-7.0891,-7.0912,-7.1118,-7.1069,-7.1071,-7.1062,-7.1076,-7.1173,-7.1212,-7.1135,-7.1133,-7.115,-7.1253,-7.1289,-7.1301,-7.1451,-7.1334,-7.1342,-7.1347,-7.135,-7.1713,-7.1717,0,0,0,0,0,0,-7.0881,-7.0905,-7.1114,-7.1122,-7.0974,-7.107,-7.1086,-7.1138,-7.1211,-7.1219,-7.1153,-7.1148,-7.1276,-7.129,-7.1305,-7.1464,-7.1343,-7.1351,-7.1356,-7.1709,-7.1714,-7.1719,0,0,0,0,0,0,-7.0875,-7.09,-7.1109,-7.1013,-7.1039,-7.108,-7.1138,-7.1142,-7.1178,-7.1225,-7.1231,-7.1183,-7.1274,-7.1293,-7.1406,-7.1468,-7.1355,-7.1363,-7.1704,-7.1711,-7.1717,-7.1784,0,0,0,0,0,0,-7.0867,-7.0898,-7.0949,-7.1015,-7.1044,-7.1208,-7.1142,-7.1148,-7.1194,-7.1189,-7.1254,-7.1261,-7.1272,-7.1393,-7.1414,-7.1479,-7.137,-7.1698,-7.1707,-7.1714,-7.1776,-7.1792,-7.1805,0,0,0,0,0,-7.0857,-7.0962,-7.0952,-7.0978,-7.1109,-7.1212,-7.1229,-7.124,-7.12,-7.1251,-7.1281,-7.1259,-7.1459,-7.1405,-7.1429,-7.1496,-7.1694,-7.1704,-7.1714,-7.177,-7.1789,-7.1805,0,0,0,0,0,0,-7.09,-7.097,-7.096,-7.1089,-7.1145,-7.1206,-7.1271,-7.126,-7.1327,-7.1319,-7.1329,-7.1344,-7.146,-7.1489,-7.1428,-7.1628,-7.157,-7.1585,-7.1604,-7.1623,-7.1637,-7.1627,-7.1378,0,0,0,0,0,-7.0925,-7.1005,-7.1061,-7.1169,-7.1198,-7.123,-7.1275,-7.128,-7.1337,-7.136,-7.1398,-7.1453,-7.1528,-7.1577,-7.1649,-7.1781,-7.1794,-7.1839,-7.1854,-7.1866,-7.1878,-7.195,-7.1971,-7.1751,-7.1751,-7.1751,0,0,-7.0977,-7.1025,-7.1074,-7.1179,-7.1223,-7.1303,-7.125,-7.1337,-7.1397,-7.1372,-7.1482,-7.1512,-7.1575,-7.1698,-7.1754,-7.1726,-7.1942,-7.1878,-7.1887,-7.1893,-7.1963,-7.1983,-7.2002,-7.1758,-7.1756,-7.1755,0,0,-7.1112,-7.1157,-7.1252,-7.1298,-7.1366,-7.1387,-7.141,-7.1474,-7.1494,-7.1605,-7.1589,-7.1659,-7.1788,-7.1833,-7.1873,-7.2029,-7.2011,-7.2052,-7.2127,-7.2197,-7.2215,-7.223,-7.2285,-7.2305,-7.2064,-7.2064,-7.2064,0,-7.1167,-7.1289,-7.1302,-7.1392,-7.1439,-7.1423,-7.152,-7.1563,-7.165,-7.1682,-7.1651,-7.1814,-7.1854,-7.1988,-7.2026,-7.2059,-7.2085,-7.2043,-7.2211,-7.2227,-7.2242,-7.2294,-7.2315,-7.2069,-7.2068,-7.2068,-7.2067,0,-7.1353,-7.1439,-7.1508,-7.1595,-7.1649,-7.1742,-7.1768,-7.1822,-7.1822,-7.1846,-7.1959,-7.2008,-7.209,-7.2122,-7.2122,-7.2257,-7.2238,-7.2209,-7.2151,-7.2267,-7.2316,-7.2337,-7.2075,-7.2073,-7.2072,-7.2071,0,0,-7.1517,-7.1613,-7.1638,-7.1678,-7.1753,-7.1818,-7.191,-7.1992,-7.2038,-7.2099,-7.2176,-7.2287,-7.2261,-7.2307,-7.2312,-7.2374,-7.2494,-7.2337,-7.2339,-7.2364,-7.2645,-7.2665,-7.2689,-7.2484,-7.2488,-7.2491,-7.2639,0,-7.1659,-7.1823,-7.1838,-7.1985,-7.2063,-7.2051,-7.2131,-7.2185,-7.2211,-7.2281,-7.2308,-7.2387,-7.2347,-7.2375,-7.2436,-7.2466,-7.255,-7.2456,-7.2554,-7.2557,-7.2538,-7.2715,-7.2736,-7.2874,-7.2659,-7.2662,-7.2665,0,-7.1846,-7.1915,-7.207,-7.2135,-7.2169,-7.2241,-7.2318,-7.2385,-7.2446,-7.246,-7.2513,-7.251,-7.2604,-7.2544,-7.2673,-7.2609,-7.265,-7.2671,-7.2677,-7.2685,-7.2617,-7.2727,-7.2919,-7.2939,-7.2695,-7.2693,-7.2691,0,-7.1949,-7.2081,-7.2191,-7.2226,-7.2305,-7.2356,-7.2391,-7.2449,-7.2497,-7.2564,-7.2596,-7.2673,-7.2714,-7.2773,-7.2791,-7.2746,-7.292,-7.2861,-7.2933,-7.2933,-7.2969,-7.2966,-7.3169,-7.2997,-7.2997,-7.2996,-7.2996,0,-7.2105,-7.22,-7.2239,-7.2307,-7.2413,-7.243,-7.2534,-7.2566,-7.2618,-7.2691,-7.2685,-7.2753,-7.2773,-7.2844,-7.2859,-7.2964,-7.2983,-7.2996,-7.2998,-7.2996,-7.2994,-7.3022,-7.3013,-7.3002,-7.3001,-7.3,-7.2999,0,-7.2238,-7.2268,-7.2388,-7.2454,-7.2473,-7.2548,-7.2604,-7.2669,-7.2694,-7.2787,-7.2809,-7.2848,-7.2933,-7.2957,-7.3057,-7.3067,-7.319,-7.3184,-7.317,-7.317,-7.3241,-7.3233,-7.3467,-7.3499,-7.3307,-7.3309,-7.3311,0,-7.2335,-7.2409,-7.2484,-7.2533,-7.2571,-7.265,-7.2701,-7.2721,-7.2773,-7.285,-7.2905,-7.2989,-7.3057,-7.3192,-7.3228,-7.3305,-7.33,-7.3377,-7.3312,-7.3307,-7.3301,-7.3296,-7.3303,-7.3389,-7.3391,-7.3393,-7.3394,0,-7.2504,-7.2516,-7.259,-7.2671,-7.2732,-7.2795,-7.2856,-7.2896,-7.2925,-7.2984,-7.3071,-7.3124,-7.3228,-7.3311,-7.339,-7.3424,-7.3414,-7.3415,-7.3436,-7.3433,-7.3422,-7.3429,-7.3203,-7.3409,-7.3408,-7.3406,-7.3406,-7.3405,-7.2622,-7.2687,-7.2751,-7.2834,-7.2882,-7.294,-7.3004,-7.3039,-7.3113,-7.32,-7.3207,-7.3302,-7.3362,-7.3466,-7.3506,-7.3579,-7.3556,-7.3586,-7.3593,-7.36,-7.3606,-7.3412,-7.3593,-7.3593,-7.3592,-7.3592,-7.3592,0,-7.279,-7.2831,-7.2908,-7.2995,-7.306,-7.3047,-7.3115,-7.3169,-7.3253,-7.3311,-7.3379,-7.348,-7.3561,-7.3605,-7.3685,-7.3735,-7.3733,-7.3756,-7.3751,-7.376,-7.3622,-7.3596,-7.3757,-7.3757,-7.3756,-7.3756,-7.3756,-7.3756,-7.2886,-7.2995,-7.3015,-7.3148,-7.3188,-7.3282,-7.3322,-7.3374,-7.3421,-7.3534,-7.3602,-7.3631,-7.3684,-7.3769,-7.3842,-7.3853,-7.3882,-7.3908,-7.3916,-7.3786,-7.3769,-7.3753,-7.3729,-7.3914,-7.3915,-7.4047,-7.4049,-7.405]}]]